Location: Arbon
(43.0005°N, 0.7472°E)
Time: 21:32:47
(UTC+00:00)

Explorer 7 - Pass Details

Date: 27 November 2020
Orbit: 484 x 678 km, 50.3° (Epoch: 25 January)

Event Time Altitude Azimuth Distance (km) Brightness Sun altitude
Rises 01:03:57 0° 197° (SSW) 2,947 - -62.6°
Reaches altitude 10° 01:06:49 10° 181° (S) 2,010 - -62.2°
Maximum altitude 01:10:10 20° 134° (SE) 1,427 - -61.8°
Drops below altitude 10° 01:13:25 10° 87° (E) 1,932 - -61.4°
Sets 01:16:06 0° 70° (ENE) 2,796 - -61.0°
